Location: Hodgeman County Ambulance
(38.0844°N, 99.8949°W)
Time: 22:07:54
(UTC+00:00)

N. Korean satellite - Pass Details

Date: 06 October 2021
Orbit: 450 x 494 km, 97.3° (Epoch: 28 October)

Event Time Altitude Azimuth Distance (km) Brightness Sun altitude
Rises 10:56:02 0° 33° (NNE) 2,571 10.9 -21.2°
Reaches altitude 10° 10:58:53 10° 58° (ENE) 1,690 10.3 -20.7°
Maximum altitude 11:00:58 15° 93° (E) 1,425 9.9 -20.3°
Drops below altitude 10° 11:03:03 10° 128° (SE) 1,689 9.9 -19.9°
Sets 11:05:53 0° 153° (SSE) 2,567 10.5 -19.3°
